Regional Weather Roundup
Issued by NWS

Home | Current Version | Previous Version | Text Only | Print | Product List | Glossary On
Versions: 1 2 3 4 5 6 7 8 9 10 11 12 13 14 15 16 17 18 19 20 21 22 23 24 25 26 27 28 29 30 31 32 33 34 35 36 37 38 39 40 41 42 43 44 45 46 47 48 49 50
609
ASUS43 KTOP 281359
RWRKS

WEATHER ROUNDUP FOR KANSAS
NATIONAL WEATHER SERVICE GOODLAND KS
900 AM CDT TUE MAR 28 2017

NOTE:  "FAIR" INDICATES FEW OR NO CLOUDS BELOW 12,000 FEET WITH NO
SIGNIFICANT WEATHER AND/OR OBSTRUCTIONS TO VISIBILITY.

KSZ001>006-013>018-027>032-041>047-281500-
NORTHWEST KANSAS

CITY           SKY/WX    TMP DP  RH WIND       PRES   REMARKS
GOODLAND       LGT RAIN  45  45 100 SE17G28   29.90R FOG
HAYS             N/A     45  44  97 E8        30.01S FOG
HILL CITY      LGT RAIN  46  45  96 SE12      30.01R FOG
RUSSELL        CLOUDY    45  44  97 SE6       30.01R FOG
$$

KSZ061>065-074>080-084>089-281500-
SOUTHWEST KANSAS

CITY           SKY/WX    TMP DP  RH WIND       PRES   REMARKS
DODGE CITY     FOG       45  45 100 SE9       29.97R VSB 1/2
ELKHART          N/A     45  37  73 E16         N/A
GARDEN CITY    LGT RAIN  46  45  96 E10       29.91F FOG
GREAT BEND     CLOUDY    48  45  89 SE10      30.01R
LIBERAL        CLOUDY    46  39  76 E15       29.89F VSB 1/2
$$

KSZ066>073-081>083-090>101-281500-
SOUTHEAST KANSAS

CITY           SKY/WX    TMP DP  RH WIND       PRES   REMARKS
CHANUTE        CLOUDY    52  46  80 E5        30.06R
COFFEYVILLE    CLOUDY    53  48  83 E7        30.04R
HUTCHINSON     CLOUDY    50  46  86 SE8       30.03R
MEDICINE LODGE   N/A     48  45  89 E5        30.00R
NEWTON         CLOUDY    49  46  90 E10       30.04R
PARSONS        CLOUDY    52  48  86 E5        30.06R
WICHITA INTL   CLOUDY    50  45  83 E9        30.02S
WICHITA JABRA  CLOUDY    50  45  83 E7        30.04R
WICHITA MCCONL CLOUDY    50  45  81 SE7       30.03S
WINFIELD       CLOUDY    50  45  83 E7        30.03S
$$

KSZ007>012-019>026-033>040-048>060-102>105-281500-
NORTHEAST KANSAS

CITY           SKY/WX    TMP DP  RH WIND       PRES   REMARKS
CONCORDIA      CLOUDY    43  42  97 E8        30.05S FOG
EMPORIA        CLOUDY    49  47  93 E7        30.06R
LAWRENCE       CLOUDY    50  47  89 NE7       30.07R
MANHATTAN      CLOUDY    48  44  86 NE3       30.07R
OLATHE IND     CLOUDY    49  46  90 NE5       30.07R FOG
OLATHE EXE     CLOUDY    47  47 100 NE7       30.06R
SALINA         CLOUDY    52  45  77 E9        30.04S
TOPEKA BILLARD CLOUDY    50  45  83 NE5       30.07R
TOPEKA FORBES  MOSUNNY   51  44  77 E5        30.07R
$$




USA.gov is the U.S. government's official web portal to all federal, state and local government web resources and services.